Skip Page Navigation
NASA JPL Caltech
NASA Logo - Jet Propulsion Laboratory + View the NASA Portal
+ Center for Near-Earth Object Studies
JPL Home Earth Solar System Stars & Galaxies Technology
JPL Solar System Dynamics
BODIES ORBITS EPHEMERIDES TOOLS PHYSICAL DATA DISCOVERY FAQ SITE MAP
JPL Small-Body Database Browser
Search: [ help ]  
14595 Peaker (1998 SW32)
Classification: Main-belt Asteroid          SPK-ID: 2014595
Ephemeris | Orbit Diagram | Orbital Elements | Mission Design | Physical Parameters | Discovery Circumstances | Close-Approach Data ]

[ show orbit diagram ]
Orbital Elements at Epoch 2459000.5 (2020-May-31.0) TDB
Reference: JPL 26 (heliocentric ecliptic J2000)
 Element Value Uncertainty (1-sigma)   Units 
e .2344606346427305 4.4242e-08  
a 2.562543870845919 9.6377e-09 au
q 1.961728208587546 1.1551e-07 au
i 4.812026439431478 4.1319e-06 deg
node 5.254733426777645 5.8841e-05 deg
peri 82.37201691126819 5.966e-05 deg
M 39.74267097435008 9.2044e-06 deg
tp 2458835.090693330221
(2019-Dec-17.59069333)
3.8296e-05 TDB
period 1498.322808740065
4.10
8.4527e-06
2.314e-08
d
yr
n .2402686509876485 1.3555e-09 deg/d
Q 3.163359533104293 1.1897e-08 au
  Orbit Determination Parameters
   # obs. used (total)      1298  
   data-arc span      12226 days (33.47 yr)  
   first obs. used      1986-11-03  
   last obs. used      2020-04-24  
   planetary ephem.      DE431  
   SB-pert. ephem.      SB431-N16  
   condition code      0  
   norm. resid. RMS      .50444  
   source      ORB  
   producer      Otto Matic  
   solution date      2020-May-20 04:02:36  

Additional Information
 Earth MOID = .984909 au 
 Jupiter MOID = 2.08781 au 
 T_jup = 3.390 
[ show covariance matrix ]

Ephemeris | Orbit Diagram | Orbital Elements | Mission Design | Physical Parameters | Discovery Circumstances | Close-Approach Data ]

Physical Parameter Table
Parameter Symbol Value Units Sigma Reference Notes
absolute magnitude H 14.7   n/a MPO452376  

14595 Peaker           Discovered 1998 Sept. 23 by Spacewatch at Kitt Peak.
Brian Ronald Peaker (b. 1959) is a competitive rower from London, Ontario, who represented Canada with distinction at numerous international events. Peaker and his crew mates won a silver medal at the 1996 Atlanta Olympics and a gold medal at the 1993 World Championships in the Czech Republic.
NOTE: some special characters may not display properly (any characters within {} are an attempt to place the proper accent above a character)
Reference: 20030614/MPCPages.arcLast Updated: 2005-04-26

[ hide close-approach data ]
Close-Approach Data   ...sorted by Date/Time (TDB)
Date/Time (TDB) Time Uncertainty
(days_HH:MM)
Body Nominal Distance (au) Minimum Distance (au) Maximum Distance (au) V-relative (km/s) V-infinity (km/s) JD (TDB) Time Uncertainty (minutes) Semi-major axis (km) Semi-minor axis (km) range-LOV angle (deg) N-sigma BP Orbit Ref. Reference Modified
2105-Apr-04 11:14 00:01 Amphi 0.0431176337807928 0.0431067363325595 0.043128533481418 3.53536582480727 3.5353657870949 2489988.968220992 1.14333003058182 733.529300729228 46.0185593470327 42.3259452003502 94541.4721127715 T 26 CATAB v2.0f-lin.ifort 2020-May-20 04:02:49 2020-May-20 04:02

Alternate Designations
 1998 SW32 = 1986 VE7 
Ephemeris | Orbit Diagram | Orbital Elements | Mission Design | Physical Parameters | Discovery Circumstances | Close-Approach Data ]
ABOUT SSD CREDITS/AWARDS PRIVACY/COPYRIGHT GLOSSARY LINKS
FirstGov 2020-Oct-25 18:30 UT
(server date/time)  
NASA Home Page
Site Manager:   Ryan S. Park
Webmaster  Alan B. Chamberlin